EDT,Max TemperatureF,Mean TemperatureF,Min TemperatureF,Max Dew PointF,MeanDew PointF,Min DewpointF,Max Humidity, Mean Humidity, Min Humidity, Max Sea Level PressureIn, Mean Sea Level PressureIn, Min Sea Level PressureIn, Max VisibilityMiles, Mean VisibilityMiles, Min VisibilityMiles, Max Wind SpeedMPH, Mean Wind SpeedMPH, Max Gust SpeedMPH,PrecipitationIn, CloudCover, Events, WindDirDegrees
2012-8-1,79,72,66,70,67,66,97,88,71,29.94,29.89,29.81,10,10,6,13,8,24,0.01,5,Rain,232
2012-8-2,82,75,68,72,70,66,100,90,58,29.92,29.86,29.83,10,7,1,17,3,20,0.00,3,Fog,227
2012-8-3,84,76,71,75,73,71,100,91,77,30.10,30.00,29.92,10,9,1,16,12,23,0.00,4,,225
2012-8-4,84,78,73,75,74,73,100,90,72,30.24,30.19,30.11,10,9,0,14,8,,0.00,4,Fog,215
2012-8-5,82,78,73,76,75,73,100,93,79,30.25,30.14,29.97,10,6,0,22,10,36,0.01,7,Fog-Rain,205
2012-8-6,86,75,64,73,69,61,97,81,43,29.97,29.95,29.90,10,9,2,21,12,29,0.22,5,Rain,248
2012-8-7,78,70,61,67,63,60,97,76,60,30.01,29.99,29.96,10,10,10,8,4,,0.00,0,,194
2012-8-8,80,70,62,70,67,61,96,82,64,30.00,29.99,29.96,10,10,10,14,5,,0.00,0,,196
2012-8-9,80,72,63,73,68,62,97,86,64,29.98,29.95,29.93,10,10,10,13,3,,0.00,4,,196
2012-8-10,79,74,71,74,73,70,100,93,81,29.95,29.89,29.82,10,9,2,16,9,30,0.85,7,Rain,172
2012-8-11,80,76,73,75,74,71,100,94,81,29.96,29.90,29.84,10,10,6,15,11,22,0.13,7,Rain,207
2012-8-12,79,74,71,74,73,71,100,94,84,29.96,29.94,29.90,10,9,2,16,10,26,0.33,6,Rain,202
2012-8-13,82,76,70,73,68,61,100,80,49,29.95,29.92,29.90,10,10,4,14,8,,0.00,2,,230
2012-8-14,82,72,62,70,66,61,96,77,54,29.95,29.93,29.91,10,10,10,14,5,,0.00,0,,231
2012-8-15,78,73,68,72,69,66,97,87,71,29.94,29.89,29.85,10,8,3,10,3,,0.30,3,Rain-Thunderstorm,187
2012-8-16,79,72,66,72,68,66,100,89,68,29.84,29.82,29.80,10,9,2,9,4,,0.28,4,,299
2012-8-17,82,73,64,71,65,60,93,71,46,29.85,29.83,29.81,10,10,10,18,7,25,0.00,0,,239
2012-8-18,75,70,66,72,66,61,97,90,78,29.88,29.85,29.81,10,9,2,10,5,17,0.15,6,Rain,343
2012-8-19,73,68,62,65,63,60,100,86,71,29.94,29.91,29.87,10,10,9,12,5,,0.00,2,,349
2012-8-20,75,67,61,65,62,60,97,84,66,29.92,29.90,29.86,10,10,10,9,2,,0.00,1,,192
2012-8-21,80,70,60,65,63,59,97,77,58,30.07,29.98,29.91,10,10,10,14,4,,0.00,1,,242
2012-8-22,82,72,62,67,63,57,94,76,44,30.14,30.11,30.06,10,10,10,7,4,,0.00,0,,344
2012-8-23,80,68,57,68,63,57,97,79,58,30.15,30.13,30.10,10,10,10,14,4,,0.00,0,,230
2012-8-24,82,72,62,70,66,63,100,82,64,30.21,30.15,30.10,10,10,8,8,3,,0.00,0,,9
2012-8-25,79,70,61,68,61,55,100,81,45,30.32,30.26,30.21,10,8,1,12,2,,0.00,2,,84
2012-8-26,77,68,59,64,60,57,100,79,55,30.33,30.29,30.25,10,10,7,9,2,,0.00,0,,117
2012-8-27,75,63,51,72,64,50,97,86,73,30.24,30.11,29.97,10,10,10,13,4,22,0.00,2,,200
2012-8-28,81,76,69,74,71,66,96,88,69,29.94,29.83,29.71,10,10,7,20,11,24,0.08,6,Rain,242
2012-8-29,71,62,53,65,54,49,93,67,47,29.98,29.92,29.84,10,10,10,13,8,21,0.00,2,,12
2012-8-30,78,64,50,59,54,49,96,68,42,30.04,30.00,29.97,10,10,10,20,5,26,0.00,0,,235
2012-8-31,82,74,66,70,64,58,83,69,54,29.98,29.91,29.82,10,10,9,22,10,32,0.00,0,,236